Regional Weather Roundup
Issued by NWS Little Rock, AR

Home | Current Version | Previous Version | Graphics & Text | Print | Product List | Glossary On
Versions: 1 2 3 4 5 6 7 8 9 10 11 12 13 14 15 16 17 18 19 20 21 22 23 24 25 26 27 28 29 30 31 32 33 34 35 36 37 38 39 40 41 42 43 44 45 46 47 48 49 50
332
ASUS44 KLZK 171105
RWRLZK

WEATHER ROUNDUP FOR ARKANSAS
NATIONAL WEATHER SERVICE LITTLE ROCK AR
600 AM CDT THU AUG 17 2017

NOTE: "FAIR" INDICATES FEW OR NO CLOUDS BELOW 12,000 FEET WITH NO
SIGNIFICANT WEATHER AND/OR OBSTRUCTIONS TO VISIBILITY.

ARZ001-003-010-029-171200-
NORTHWEST ARKANSAS

CITY           SKY/WX    TMP DP  RH WIND       PRES   REMARKS
FAYETTEVILLE   CLOUDY    68  68 100 W3        29.95R
FORT SMITH     CLOUDY    74  73  97 NW7       29.92R
HARRISON       CLOUDY    68  68 100 E5        29.93F
BENTONVILLE    CLOUDY    70  66  88 W5        29.94F
ROGERS         CLOUDY    68  67  96 S5        29.95R
SILOAM SPGS    CLOUDY    70  66  88 W7        29.94S
HIGHFILL       CLOUDY    70  70 100 W8        29.95R
SPRINGDALE     CLOUDY    68  68 100 CALM      29.96
$$

ARZ004-005-016-171200-
NORTH CENTRAL ARKANSAS

CITY           SKY/WX    TMP DP  RH WIND       PRES   REMARKS
BATESVILLE     CLOUDY    70  66  88 CALM      29.96S
FLIPPIN        CLOUDY    70  63  78 E5        29.91F
MTN HOME       RAIN      67  67 100 S5        29.94F
$$

ARZ040-041-171200-
WEST CENTRAL ARKANSAS

CITY           SKY/WX    TMP DP  RH WIND       PRES   REMARKS
MENA           CLOUDY    72  72 100 CALM      29.98R
MOUNT IDA      HVY RAIN  75  72  90 VRB3      29.92R FOG
$$

ARZ009-017-025-026-028-171200-
NORTHEAST ARKANSAS

CITY           SKY/WX    TMP DP  RH WIND       PRES   REMARKS
CORNING        FAIR      73  73 100 SW6       29.93S
JONESBORO      PTCLDY    76  76 100 W6        29.93F
NEWPORT        CLOUDY    74  70  87 SE3       29.94F
WALNUT RIDGE   CLOUDY    73  68  83 W6        29.94R
BLYTHEVILLE    CLOUDY    76  74  93 SW9       29.96R
$$

ARZ022-023-033-042-044-171200-
CENTRAL ARKANSAS

CITY           SKY/WX    TMP DP  RH WIND       PRES   REMARKS
LITTLE ROCK    CLOUDY    77  77 100 S9        29.94R
N LITTLE ROCK    N/A     78  75  92 SW9       29.94R
JACKSONVILLE   CLOUDY    79  78  97 S8        29.92S
CONWAY           N/A     79  77  94 SW9       29.91R
SEARCY           N/A    N/A N/A N/A MISG        N/A
HOT SPRINGS    CLOUDY    76  75  97 N5        29.97R
RUSSELLVILLE   TSTM      70  70 100 NE10      29.91F FOG
CLINTON        LGT RAIN  70  70 100 S6        29.95F
$$

ARZ036-171200-
EAST ARKANSAS

CITY           SKY/WX    TMP DP  RH WIND       PRES   REMARKS
WEST MEMPHIS   CLOUDY    77  76  96 S10       29.95S
$$

ARZ050-053-066-070-073-171200-
SOUTHWEST ARKANSAS

CITY           SKY/WX    TMP DP  RH WIND       PRES   REMARKS
ARKADELPHIA    CLOUDY    79  77  94 SW6       29.95R
CAMDEN         CLOUDY    79  75  89 S7        29.96R
TEXARKANA      CLOUDY    79  77  94 SW9       29.97R
EL DORADO      CLOUDY    79  77  94 S10       29.98S
DE QUEEN       TSTM      71  71 100 S7        29.96R FOG
$$

ARZ056-057-069-171200-
SOUTHEAST ARKANSAS

CITY           SKY/WX    TMP DP  RH WIND       PRES   REMARKS
PINE BLUFF     CLOUDY    78  75  90 S8        29.97R
MONTICELLO     CLOUDY    80  75  84 SW12G18   29.98S HX  85

$$






USA.gov is the U.S. government's official web portal to all federal, state and local government web resources and services.